Location: Pasarilla del Rebollar
(40.6790°N, 5.0062°W)
Time: 10:28:08
(UTC+00:00)

Cosmos 2219 Rocket - Pass Details

Date: 22 April 2026
Orbit: 826 x 846 km, 71.0° (Epoch: 20 May)

Event Time Altitude Azimuth Distance (km) Brightness Sun altitude
Rises 02:58:34 0° 341° (NNW) 3,392 5.7 -25.5°
Reaches altitude 10° 03:01:06 10° 346° (NNW) 2,457 5.0 -25.2°
Maximum altitude 03:06:35 51° 62° (ENE) 1,053 3.0 -24.4°
Drops below altitude 10° 03:12:03 10° 138° (SE) 2,454 4.6 -23.7°
Sets 03:14:34 0° 143° (SE) 3,387 5.3 -23.3°
